INMARSAT 3-F5

导读

INMARSAT 3-F5是国际海事卫星组织(INMARSAT)发射的第三代海事通信卫星,于1998年2月4日发射入轨。作为INMARSAT-3系列的第五颗卫星,它采用点波束天线设计,可灵活配置功率与频点,相比第二代卫星容量显著提升,支持移动台直接通信与航空频段通信,为全球海事、航空等领域提供可靠的语音、数据、传真等移动通信服务,有力推动了全球移动卫星通信网络的升级,满足多样化海上、空中移动场景的通信需求。

基本信息
目录编号:
25153
目录名称:
INMARSAT 3-F5
国际标识:
1998-006B
轨道中心:
EARTH
卫星名称:
INMARSAT 3-F5
卫星全名:
--
卫星状态:
在轨 (已飞行10400 天)
发射日期:
1998-02-04 UTC
国别 :
(Inmarsat)
星等 :
--
轨道信息
数据来源 国际轨道数据
星历时间: 2026-07-27T18:49:26+0800
11小时前
查看轨道信息
半长轴: 42165.429km
偏心率: 0.0004724
轨道倾角: 9.780°
近地点辐角 75.824°
升交点赤经 52.849°
平近点角 284.812°
近地点: 35767.373km
远地点: 35807.211km
周期: 1436.132分钟
每日圈数: 1.002693
详细信息
使用方式:
暂无
2D轨道图
3D轨道图
轨道高度分析图
轨道倾角分析图
轨道综合分析图
查看轨道综合分析图